User: anonymous   Login
Location: �couen
(49.0206°N, 2.3831°E)
Time: 07:25:55
(UTC+00:00)
Language:

Cosmos 614 Rocket - Orbit

View from above orbital plane
View from above orbital plane
View from above satellite
View from above satellite

Ground track
Ground track

The orbit data is extracted from the following two-line orbital elements,

1 06966U 73098B   22016.91465642  .00000170  00000-0  58410-4 0  9992
2 06966  74.0569 355.7245 0022814 269.0396  90.8146 14.43122949526755
Epoch (UTC): 16 January 2022 21:57:06
Eccentricity: 0.0022814
inclination: 74.0569°
perigee height: 732 km
apogee height: 764 km
right ascension of ascending node: 355.7245°
argument of perigee: 269.0396°
revolutions per day: 14.43122949
mean anomaly at epoch: 90.8146°
orbit number at epoch: 52675

The dashed part of the orbit path shows where the satellite is in the earth's shadow,  

DLR